Year,Month,Day,Hour,Minute,Value (Times are PST for temperature in C)
2009,08,18,00,00,15.50
2009,08,18,00,01,15.50
2009,08,18,00,02,15.50
2009,08,18,00,03,15.40
2009,08,18,00,04,15.40
2009,08,18,00,05,15.40
2009,08,18,00,06,15.40
2009,08,18,00,07,15.40
2009,08,18,00,08,15.40
2009,08,18,00,09,15.40
2009,08,18,00,10,15.40
2009,08,18,00,11,15.40
2009,08,18,00,12,15.40
2009,08,18,00,13,15.40
2009,08,18,00,14,15.40
2009,08,18,00,15,15.40
2009,08,18,00,16,15.30
2009,08,18,00,17,15.30
2009,08,18,00,18,15.30
2009,08,18,00,19,15.30
2009,08,18,00,20,15.20
2009,08,18,00,21,15.20
2009,08,18,00,22,15.20
2009,08,18,00,23,15.20
2009,08,18,00,24,15.10
2009,08,18,00,25,15.10
2009,08,18,00,26,15.00
2009,08,18,00,27,15.00
2009,08,18,00,28,15.00
2009,08,18,00,29,15.00
2009,08,18,00,30,15.00
2009,08,18,00,31,15.00
2009,08,18,00,32,15.00
2009,08,18,00,33,15.00
2009,08,18,00,34,15.00
2009,08,18,00,35,15.00
2009,08,18,00,36,15.00
2009,08,18,00,37,15.00
2009,08,18,00,38,15.00
2009,08,18,00,39,15.00
2009,08,18,00,40,15.00
2009,08,18,00,41,14.90
2009,08,18,00,42,14.90
2009,08,18,00,43,14.90
2009,08,18,00,44,14.80
2009,08,18,00,45,14.80
2009,08,18,00,46,14.80
2009,08,18,00,47,14.80
2009,08,18,00,48,14.80
2009,08,18,00,49,14.70
2009,08,18,00,50,14.70
2009,08,18,00,51,14.70
2009,08,18,00,52,14.70
2009,08,18,00,53,14.70
2009,08,18,00,54,14.70
2009,08,18,00,55,14.70
2009,08,18,00,56,14.70
2009,08,18,00,57,14.70
2009,08,18,00,58,14.70
2009,08,18,00,59,14.70
2009,08,18,01,00,14.70
2009,08,18,01,01,14.70
2009,08,18,01,02,14.70
2009,08,18,01,03,14.70
2009,08,18,01,04,14.70
2009,08,18,01,05,14.70
2009,08,18,01,06,14.70
2009,08,18,01,07,14.70
2009,08,18,01,08,14.60
2009,08,18,01,09,14.60
2009,08,18,01,10,14.60
2009,08,18,01,11,14.60
2009,08,18,01,12,14.60
2009,08,18,01,13,14.60
2009,08,18,01,14,14.60
2009,08,18,01,15,14.60
2009,08,18,01,16,14.50
2009,08,18,01,17,14.50
2009,08,18,01,18,14.50
2009,08,18,01,19,14.50
2009,08,18,01,20,14.40
2009,08,18,01,21,14.40
2009,08,18,01,22,14.40
2009,08,18,01,23,14.40
2009,08,18,01,24,14.40
2009,08,18,01,25,14.40
2009,08,18,01,26,14.40
2009,08,18,01,27,14.40
2009,08,18,01,28,14.40
2009,08,18,01,29,14.40
2009,08,18,01,30,14.40
2009,08,18,01,31,14.40
2009,08,18,01,32,14.40
2009,08,18,01,33,14.30
2009,08,18,01,34,14.30
2009,08,18,01,35,14.30
2009,08,18,01,36,14.30
2009,08,18,01,37,14.30
2009,08,18,01,38,14.30
2009,08,18,01,39,14.30
2009,08,18,01,40,14.30
2009,08,18,01,41,14.30
2009,08,18,01,42,14.30
2009,08,18,01,43,14.30
2009,08,18,01,44,14.30
2009,08,18,01,45,14.30
2009,08,18,01,46,14.30
2009,08,18,01,47,14.20
2009,08,18,01,48,14.20
2009,08,18,01,49,14.20
2009,08,18,01,50,14.20
2009,08,18,01,51,14.20
2009,08,18,01,52,14.20
2009,08,18,01,53,14.10
2009,08,18,01,54,14.10
2009,08,18,01,55,14.10
2009,08,18,01,56,14.10
2009,08,18,01,57,14.00
2009,08,18,01,58,14.00
2009,08,18,01,59,14.00
2009,08,18,02,00,13.90
2009,08,18,02,01,13.90
2009,08,18,02,02,13.90
2009,08,18,02,03,13.90
2009,08,18,02,04,13.90
2009,08,18,02,05,13.90
2009,08,18,02,06,13.90
2009,08,18,02,07,14.00
2009,08,18,02,08,13.90
2009,08,18,02,09,13.90
2009,08,18,02,10,13.90
2009,08,18,02,11,13.90
2009,08,18,02,12,14.00
2009,08,18,02,13,14.00
2009,08,18,02,14,14.00
2009,08,18,02,15,14.00
2009,08,18,02,16,14.00
2009,08,18,02,17,14.00
2009,08,18,02,18,14.00
2009,08,18,02,19,14.00
2009,08,18,02,20,14.00
2009,08,18,02,21,14.00
2009,08,18,02,22,14.00
2009,08,18,02,23,14.00
2009,08,18,02,24,14.00
2009,08,18,02,25,14.00
2009,08,18,02,26,13.90
2009,08,18,02,27,13.90
2009,08,18,02,28,13.90
2009,08,18,02,29,13.90
2009,08,18,02,30,13.90
2009,08,18,02,31,13.90
2009,08,18,02,32,13.90
2009,08,18,02,33,13.90
2009,08,18,02,34,13.90
2009,08,18,02,35,13.90
2009,08,18,02,36,13.90
2009,08,18,02,37,13.90
2009,08,18,02,38,13.90
2009,08,18,02,39,13.90
2009,08,18,02,40,13.90
2009,08,18,02,41,13.80
2009,08,18,02,42,13.80
2009,08,18,02,43,13.80
2009,08,18,02,44,13.80
2009,08,18,02,45,13.80
2009,08,18,02,46,13.80
2009,08,18,02,47,13.80
2009,08,18,02,48,13.80
2009,08,18,02,49,13.70
2009,08,18,02,50,13.70
2009,08,18,02,51,13.70
2009,08,18,02,52,13.70
2009,08,18,02,53,13.70
2009,08,18,02,54,13.70
2009,08,18,02,55,13.70
2009,08,18,02,56,13.70
2009,08,18,02,57,13.70
2009,08,18,02,58,13.70
2009,08,18,02,59,13.70
2009,08,18,03,00,13.70
2009,08,18,03,01,13.70
2009,08,18,03,02,13.70
2009,08,18,03,03,13.70
2009,08,18,03,04,13.70
2009,08,18,03,05,13.70
2009,08,18,03,06,13.70
2009,08,18,03,07,13.70
2009,08,18,03,08,13.70
2009,08,18,03,09,13.70
2009,08,18,03,10,13.70
2009,08,18,03,11,13.70
2009,08,18,03,12,13.70
2009,08,18,03,13,13.60
2009,08,18,03,14,13.60
2009,08,18,03,15,13.60
2009,08,18,03,16,13.60
2009,08,18,03,17,13.60
2009,08,18,03,18,13.60
2009,08,18,03,19,13.60
2009,08,18,03,20,13.60
2009,08,18,03,21,13.70
2009,08,18,03,22,13.60
2009,08,18,03,23,13.60
2009,08,18,03,24,13.70
2009,08,18,03,25,13.70
2009,08,18,03,26,13.70
2009,08,18,03,27,13.70
2009,08,18,03,28,13.60
2009,08,18,03,29,13.60
2009,08,18,03,30,13.50
2009,08,18,03,31,13.50
2009,08,18,03,32,13.50
2009,08,18,03,33,13.40
2009,08,18,03,34,13.40
2009,08,18,03,35,13.40
2009,08,18,03,36,13.40
2009,08,18,03,37,13.40
2009,08,18,03,38,13.40
2009,08,18,03,39,13.30
2009,08,18,03,40,13.40
2009,08,18,03,41,13.40
2009,08,18,03,42,13.40
2009,08,18,03,43,13.40
2009,08,18,03,44,13.40
2009,08,18,03,45,13.40
2009,08,18,03,49,13.40
2009,08,18,03,50,13.40
2009,08,18,03,51,13.40
2009,08,18,03,52,13.40
2009,08,18,03,53,13.40
2009,08,18,03,54,13.40
2009,08,18,03,55,13.30
2009,08,18,03,56,13.30
2009,08,18,03,57,13.30
2009,08,18,03,58,13.30
2009,08,18,03,59,13.30
2009,08,18,04,00,13.20
2009,08,18,04,01,13.20
2009,08,18,04,02,13.20
2009,08,18,04,03,13.20
2009,08,18,04,04,13.20
2009,08,18,04,05,13.20
2009,08,18,04,06,13.20
2009,08,18,04,07,13.20
2009,08,18,04,08,13.20
2009,08,18,04,09,13.20
2009,08,18,04,10,13.20
2009,08,18,04,11,13.20
2009,08,18,04,12,13.20
2009,08,18,04,13,13.20
2009,08,18,04,14,13.20
2009,08,18,04,15,13.20
2009,08,18,04,16,13.20
2009,08,18,04,17,13.20
2009,08,18,04,18,13.20
2009,08,18,04,19,13.20
2009,08,18,04,20,13.20
2009,08,18,04,21,13.20
2009,08,18,04,22,13.20
2009,08,18,04,23,13.20
2009,08,18,04,24,13.20
2009,08,18,04,25,13.20
2009,08,18,04,26,13.20
2009,08,18,04,27,13.20
2009,08,18,04,28,13.30
2009,08,18,04,29,13.30
2009,08,18,04,30,13.30
2009,08,18,04,31,13.30
2009,08,18,04,32,13.30
2009,08,18,04,33,13.20
2009,08,18,04,34,13.20
2009,08,18,04,35,13.20
2009,08,18,04,36,13.20
2009,08,18,04,37,13.20
2009,08,18,04,38,13.20
2009,08,18,04,39,13.20
2009,08,18,04,40,13.20
2009,08,18,04,41,13.20
2009,08,18,04,42,13.20
2009,08,18,04,43,13.20
2009,08,18,04,44,13.20
2009,08,18,04,45,13.20
2009,08,18,04,46,13.20
2009,08,18,04,47,13.20
2009,08,18,04,48,13.20
2009,08,18,04,49,13.20
2009,08,18,04,50,13.20
2009,08,18,04,51,13.20
2009,08,18,04,52,13.10
2009,08,18,04,53,13.10
2009,08,18,04,54,13.10
2009,08,18,04,55,13.10
2009,08,18,04,56,13.10
2009,08,18,04,57,13.10
2009,08,18,04,58,13.10
2009,08,18,04,59,13.10
2009,08,18,05,00,13.10
2009,08,18,05,01,13.10
2009,08,18,05,02,13.10
2009,08,18,05,03,13.10
2009,08,18,05,04,13.10
2009,08,18,05,05,13.10
2009,08,18,05,06,13.10
2009,08,18,05,07,13.00
2009,08,18,05,08,13.00
2009,08,18,05,09,13.00
2009,08,18,05,10,13.00
2009,08,18,05,11,12.90
2009,08,18,05,12,12.90
2009,08,18,05,13,12.90
2009,08,18,05,14,12.90
2009,08,18,05,15,12.90
2009,08,18,05,16,12.80
2009,08,18,05,17,12.80
2009,08,18,05,18,12.80
2009,08,18,05,19,12.80
2009,08,18,05,20,12.80
2009,08,18,05,21,12.80
2009,08,18,05,22,12.70
2009,08,18,05,23,12.70
2009,08,18,05,24,12.70
2009,08,18,05,25,12.70
2009,08,18,05,26,12.70
2009,08,18,05,27,12.70
2009,08,18,05,28,12.70
2009,08,18,05,29,12.70
2009,08,18,05,30,12.70
2009,08,18,05,31,12.70
2009,08,18,05,32,12.70
2009,08,18,05,33,12.70
2009,08,18,05,34,12.80
2009,08,18,05,35,12.80
2009,08,18,05,36,12.80
2009,08,18,05,37,12.80
2009,08,18,05,38,12.80
2009,08,18,05,39,12.80
2009,08,18,05,40,12.80
2009,08,18,05,41,12.80
2009,08,18,05,42,12.70
2009,08,18,05,43,12.70
2009,08,18,05,44,12.70
2009,08,18,05,45,12.70
2009,08,18,05,46,12.70
2009,08,18,05,47,12.70
2009,08,18,05,48,12.70
2009,08,18,05,49,12.70
2009,08,18,05,50,12.70
2009,08,18,05,51,12.70
2009,08,18,05,52,12.70
2009,08,18,05,53,12.70
2009,08,18,05,54,12.70
2009,08,18,05,55,12.60
2009,08,18,05,56,12.60
2009,08,18,05,57,12.60
2009,08,18,05,58,12.60
2009,08,18,05,59,12.70
2009,08,18,06,00,12.70
2009,08,18,06,01,12.70
2009,08,18,06,02,12.70
2009,08,18,06,03,12.60
2009,08,18,06,04,12.70
2009,08,18,06,05,12.70
2009,08,18,06,06,12.70
2009,08,18,06,07,12.70
2009,08,18,06,08,12.70
2009,08,18,06,09,12.70
2009,08,18,06,10,12.70
2009,08,18,06,11,12.70
2009,08,18,06,12,12.70
2009,08,18,06,13,12.70
2009,08,18,06,14,12.70
2009,08,18,06,15,12.70
2009,08,18,06,16,12.70
2009,08,18,06,17,12.70
2009,08,18,06,18,12.80
2009,08,18,06,19,12.80
2009,08,18,06,20,12.80
2009,08,18,06,21,12.80
2009,08,18,06,22,12.80
2009,08,18,06,23,12.80
2009,08,18,06,24,12.80
2009,08,18,06,25,12.80
2009,08,18,06,26,12.80
2009,08,18,06,27,12.80
2009,08,18,06,28,12.80
2009,08,18,06,29,12.80
2009,08,18,06,30,12.80
2009,08,18,06,31,12.80
2009,08,18,06,32,12.80
2009,08,18,06,33,12.80
2009,08,18,06,34,12.80
2009,08,18,06,35,12.80
2009,08,18,06,36,12.80
2009,08,18,06,37,12.80
2009,08,18,06,38,12.80
2009,08,18,06,39,12.80
2009,08,18,06,40,12.80
2009,08,18,06,41,12.80
2009,08,18,06,42,12.80
2009,08,18,06,43,12.80
2009,08,18,06,44,12.80
2009,08,18,06,45,12.80
2009,08,18,06,46,12.80
2009,08,18,06,47,12.80
2009,08,18,06,48,12.80
2009,08,18,06,49,12.80
2009,08,18,06,50,12.90
2009,08,18,06,51,12.90
2009,08,18,06,52,12.90
2009,08,18,06,53,13.00
2009,08,18,06,54,13.10
2009,08,18,06,55,13.20
2009,08,18,06,56,13.20
2009,08,18,06,57,13.30
2009,08,18,06,58,13.30
2009,08,18,06,59,13.30
2009,08,18,07,00,13.40
2009,08,18,07,01,13.40
2009,08,18,07,02,13.40
2009,08,18,07,03,13.40
2009,08,18,07,04,13.40
2009,08,18,07,05,13.40
2009,08,18,07,06,13.40
2009,08,18,07,07,13.50
2009,08,18,07,08,13.60
2009,08,18,07,09,13.60
2009,08,18,07,10,13.60
2009,08,18,07,11,13.60
2009,08,18,07,12,13.70
2009,08,18,07,13,13.70
2009,08,18,07,14,13.70
2009,08,18,07,15,13.80
2009,08,18,07,16,13.80
2009,08,18,07,17,13.90
2009,08,18,07,18,13.90
2009,08,18,07,19,13.90
2009,08,18,07,20,14.00
2009,08,18,07,21,14.00
2009,08,18,07,22,14.10
2009,08,18,07,23,14.10
2009,08,18,07,24,14.20
2009,08,18,07,25,14.20
2009,08,18,07,26,14.30
2009,08,18,07,27,14.30
2009,08,18,07,28,14.40
2009,08,18,07,29,14.50
2009,08,18,07,30,14.60
2009,08,18,07,31,14.60
2009,08,18,07,32,14.70
2009,08,18,07,33,14.80
2009,08,18,07,34,14.80
2009,08,18,07,35,14.90
2009,08,18,07,36,14.90
2009,08,18,07,37,15.00
2009,08,18,07,38,15.00
2009,08,18,07,39,15.00
2009,08,18,07,40,15.00
2009,08,18,07,41,15.00
2009,08,18,07,42,15.10
2009,08,18,07,43,15.30
2009,08,18,07,44,15.40
2009,08,18,07,45,15.50
2009,08,18,07,46,15.60
2009,08,18,07,47,15.70
2009,08,18,07,48,15.80
2009,08,18,07,49,15.90
2009,08,18,07,50,15.90
2009,08,18,07,51,16.00
2009,08,18,07,52,16.10
2009,08,18,07,53,16.20
2009,08,18,07,54,16.20
2009,08,18,07,55,16.30
2009,08,18,07,56,16.40
2009,08,18,07,57,16.40
2009,08,18,07,58,16.50
2009,08,18,07,59,16.50
2009,08,18,08,00,16.60
2009,08,18,08,01,16.70
2009,08,18,08,02,16.80
2009,08,18,08,03,16.80
2009,08,18,08,04,16.90
2009,08,18,08,05,17.00
2009,08,18,08,06,17.00
2009,08,18,08,07,17.10
2009,08,18,08,08,17.20
2009,08,18,08,09,17.30
2009,08,18,08,10,17.30
2009,08,18,08,11,17.50
2009,08,18,08,12,17.60
2009,08,18,08,13,17.70
2009,08,18,08,14,17.80
2009,08,18,08,15,17.90
2009,08,18,08,16,18.00
2009,08,18,08,17,18.20
2009,08,18,08,18,18.20
2009,08,18,08,19,18.30
2009,08,18,08,20,18.40
2009,08,18,08,21,18.50
2009,08,18,08,22,18.50
2009,08,18,08,23,18.60
2009,08,18,08,24,18.70
2009,08,18,08,25,18.80
2009,08,18,08,26,18.90
2009,08,18,08,27,18.90
2009,08,18,08,28,19.00
2009,08,18,08,29,19.10
2009,08,18,08,30,19.10
2009,08,18,08,31,19.20
2009,08,18,08,32,19.30
2009,08,18,08,33,19.40
2009,08,18,08,34,19.40
2009,08,18,08,35,19.50
2009,08,18,08,36,19.60
2009,08,18,08,37,19.60
2009,08,18,08,38,19.70
2009,08,18,08,39,19.80
2009,08,18,08,40,19.90
2009,08,18,08,41,20.00
2009,08,18,08,42,20.00
2009,08,18,08,43,20.10
2009,08,18,08,44,20.20
2009,08,18,08,45,20.30
2009,08,18,08,46,20.30
2009,08,18,08,47,20.30
2009,08,18,08,48,20.30
2009,08,18,08,49,20.30
2009,08,18,08,50,20.30
2009,08,18,08,51,20.30
2009,08,18,08,52,20.30
2009,08,18,08,53,20.30
2009,08,18,08,54,20.30
2009,08,18,08,55,20.30
2009,08,18,08,56,20.40
2009,08,18,08,57,20.40
2009,08,18,08,58,20.40
2009,08,18,08,59,20.50
2009,08,18,09,00,20.50
2009,08,18,09,01,20.60
2009,08,18,09,02,20.70
2009,08,18,09,03,20.80
2009,08,18,09,04,20.90
2009,08,18,09,05,20.90
2009,08,18,09,06,20.90
2009,08,18,09,07,20.90
2009,08,18,09,08,21.00
2009,08,18,09,09,20.90
2009,08,18,09,10,20.90
2009,08,18,09,11,20.70
2009,08,18,09,12,20.60
2009,08,18,09,13,20.50
2009,08,18,09,14,20.40
2009,08,18,09,15,20.40
2009,08,18,09,16,20.40
2009,08,18,09,17,20.50
2009,08,18,09,18,20.50
2009,08,18,09,19,20.60
2009,08,18,09,20,20.60
2009,08,18,09,21,20.70
2009,08,18,09,22,20.80
2009,08,18,09,23,20.80
2009,08,18,09,24,20.80
2009,08,18,09,25,20.90
2009,08,18,09,26,21.00
2009,08,18,09,27,21.00
2009,08,18,09,28,21.10
2009,08,18,09,29,21.10
2009,08,18,09,30,21.10
2009,08,18,09,31,21.20
2009,08,18,09,32,21.20
2009,08,18,09,33,21.30
2009,08,18,09,34,21.30
2009,08,18,09,35,21.40
2009,08,18,09,36,21.40
2009,08,18,09,37,21.40
2009,08,18,09,38,21.50
2009,08,18,09,39,21.50
2009,08,18,09,40,21.50
2009,08,18,09,41,21.60
2009,08,18,09,42,21.60
2009,08,18,09,43,21.70
2009,08,18,09,44,21.80
2009,08,18,09,45,21.80
2009,08,18,09,46,21.80
2009,08,18,09,47,21.70
2009,08,18,09,48,21.70
2009,08,18,09,49,21.60
2009,08,18,09,50,21.60
2009,08,18,09,51,21.60
2009,08,18,09,52,21.70
2009,08,18,09,53,21.70
2009,08,18,09,54,21.60
2009,08,18,09,55,21.60
2009,08,18,09,56,21.60
2009,08,18,09,57,21.60
2009,08,18,09,58,21.60
2009,08,18,09,59,21.70
2009,08,18,10,00,21.70
2009,08,18,10,01,21.70
2009,08,18,10,02,21.70
2009,08,18,10,03,21.80
2009,08,18,10,04,21.80
2009,08,18,10,05,21.90
2009,08,18,10,06,21.90
2009,08,18,10,07,22.00
2009,08,18,10,08,21.90
2009,08,18,10,09,21.90
2009,08,18,10,10,21.90
2009,08,18,10,11,21.80
2009,08,18,10,12,21.80
2009,08,18,10,13,21.90
2009,08,18,10,14,22.00
2009,08,18,10,15,22.00
2009,08,18,10,16,22.00
2009,08,18,10,17,21.90
2009,08,18,10,18,21.90
2009,08,18,10,19,21.80
2009,08,18,10,20,21.80
2009,08,18,10,21,21.90
2009,08,18,10,22,21.90
2009,08,18,10,23,22.00
2009,08,18,10,24,22.00
2009,08,18,10,25,22.00
2009,08,18,10,26,22.10
2009,08,18,10,27,22.20
2009,08,18,10,28,22.20
2009,08,18,10,29,22.30
2009,08,18,10,30,22.30
2009,08,18,10,31,22.30
2009,08,18,10,32,22.20
2009,08,18,10,33,22.30
2009,08,18,10,34,22.30
2009,08,18,10,35,22.40
2009,08,18,10,36,22.50
2009,08,18,10,37,22.50
2009,08,18,10,38,22.50
2009,08,18,10,39,22.60
2009,08,18,10,40,22.60
2009,08,18,10,41,22.60
2009,08,18,10,42,22.40
2009,08,18,10,43,22.20
2009,08,18,10,44,22.00
2009,08,18,10,45,21.90
2009,08,18,10,46,21.80
2009,08,18,10,47,21.80
2009,08,18,10,48,21.90
2009,08,18,10,49,21.80
2009,08,18,10,50,21.90
2009,08,18,10,51,22.00
2009,08,18,10,52,22.10
2009,08,18,10,53,22.30
2009,08,18,10,54,22.40
2009,08,18,10,55,22.50
2009,08,18,10,56,22.60
2009,08,18,10,57,22.60
2009,08,18,10,58,22.70
2009,08,18,10,59,22.80
2009,08,18,11,00,22.80
2009,08,18,11,01,22.80
2009,08,18,11,02,22.80
2009,08,18,11,03,22.80
2009,08,18,11,04,22.80
2009,08,18,11,05,22.80
2009,08,18,11,06,22.80
2009,08,18,11,07,22.80
2009,08,18,11,08,22.80
2009,08,18,11,09,22.80
2009,08,18,11,10,22.80
2009,08,18,11,11,22.80
2009,08,18,11,12,22.80
2009,08,18,11,13,22.80
2009,08,18,11,14,22.80
2009,08,18,11,15,22.90
2009,08,18,11,16,23.00
2009,08,18,11,17,23.10
2009,08,18,11,18,23.20
2009,08,18,11,19,23.40
2009,08,18,11,20,23.50
2009,08,18,11,21,23.50
2009,08,18,11,22,23.60
2009,08,18,11,23,23.70
2009,08,18,11,24,23.70
2009,08,18,11,25,23.70
2009,08,18,11,26,23.60
2009,08,18,11,27,23.60
2009,08,18,11,28,23.60
2009,08,18,11,29,23.50
2009,08,18,11,30,23.50
2009,08,18,11,31,23.50
2009,08,18,11,32,23.60
2009,08,18,11,33,23.60
2009,08,18,11,34,23.70
2009,08,18,11,35,23.70
2009,08,18,11,36,23.80
2009,08,18,11,37,23.80
2009,08,18,11,38,23.80
2009,08,18,11,39,23.80
2009,08,18,11,40,23.80
2009,08,18,11,41,23.80
2009,08,18,11,42,23.80
2009,08,18,11,43,23.70
2009,08,18,11,44,23.60
2009,08,18,11,45,23.60
2009,08,18,11,46,23.70
2009,08,18,11,47,23.80
2009,08,18,11,48,23.90
2009,08,18,11,49,24.00
2009,08,18,11,50,24.10
2009,08,18,11,51,24.20
2009,08,18,11,52,24.20
2009,08,18,11,53,24.20
2009,08,18,11,54,24.20
2009,08,18,11,55,24.20
2009,08,18,11,56,24.20
2009,08,18,11,57,24.10
2009,08,18,11,58,24.00
2009,08,18,11,59,23.90
2009,08,18,12,00,23.90
2009,08,18,12,01,24.00
2009,08,18,12,02,24.10
2009,08,18,12,03,24.20
2009,08,18,12,04,24.30
2009,08,18,12,05,24.40
2009,08,18,12,06,24.50
2009,08,18,12,07,24.50
2009,08,18,12,08,24.50
2009,08,18,12,09,24.40
2009,08,18,12,10,24.40
2009,08,18,12,11,24.30
2009,08,18,12,12,24.30
2009,08,18,12,13,24.30
2009,08,18,12,14,24.30
2009,08,18,12,15,24.30
2009,08,18,12,16,24.30
2009,08,18,12,17,24.30
2009,08,18,12,18,24.20
2009,08,18,12,19,24.20
2009,08,18,12,20,24.10
2009,08,18,12,21,24.00
2009,08,18,12,22,23.80
2009,08,18,12,23,23.60
2009,08,18,12,24,23.50
2009,08,18,12,25,23.40
2009,08,18,12,26,23.30
2009,08,18,12,27,23.20
2009,08,18,12,28,23.20
2009,08,18,12,29,23.30
2009,08,18,12,30,23.40
2009,08,18,12,31,23.60
2009,08,18,12,32,23.80
2009,08,18,12,33,23.90
2009,08,18,12,34,24.00
2009,08,18,12,35,24.10
2009,08,18,12,36,24.20
2009,08,18,12,37,24.30
2009,08,18,12,38,24.30
2009,08,18,12,39,24.20
2009,08,18,12,40,24.20
2009,08,18,12,41,24.10
2009,08,18,12,42,24.00
2009,08,18,12,43,24.00
2009,08,18,12,44,24.10
2009,08,18,12,45,24.10
2009,08,18,12,46,24.10
2009,08,18,12,47,24.00
2009,08,18,12,48,24.00
2009,08,18,12,49,24.00
2009,08,18,12,50,24.00
2009,08,18,12,51,24.00
2009,08,18,12,52,24.00
2009,08,18,12,53,24.00
2009,08,18,12,54,24.00
2009,08,18,12,55,24.10
2009,08,18,12,56,24.10
2009,08,18,12,57,24.20
2009,08,18,12,58,24.20
2009,08,18,12,59,24.10
2009,08,18,13,00,24.00
2009,08,18,13,01,23.90
2009,08,18,13,02,24.00
2009,08,18,13,03,24.00
2009,08,18,13,04,24.00
2009,08,18,13,05,24.00
2009,08,18,13,06,24.00
2009,08,18,13,07,24.00
2009,08,18,13,08,24.00
2009,08,18,13,09,24.00
2009,08,18,13,10,24.10
2009,08,18,13,11,24.10
2009,08,18,13,12,24.10
2009,08,18,13,13,24.20
2009,08,18,13,14,24.20
2009,08,18,13,15,24.30
2009,08,18,13,16,24.30
2009,08,18,13,17,24.30
2009,08,18,13,18,24.40
2009,08,18,13,19,24.50
2009,08,18,13,20,24.40
2009,08,18,13,21,24.50
2009,08,18,13,22,24.50
2009,08,18,13,23,24.60
2009,08,18,13,24,24.80
2009,08,18,13,25,24.80
2009,08,18,13,26,24.90
2009,08,18,13,27,24.80
2009,08,18,13,28,24.80
2009,08,18,13,29,24.80
2009,08,18,13,30,24.80
2009,08,18,13,31,24.70
2009,08,18,13,32,24.70
2009,08,18,13,33,24.70
2009,08,18,13,34,24.80
2009,08,18,13,35,24.80
2009,08,18,13,36,24.90
2009,08,18,13,37,25.00
2009,08,18,13,38,25.00
2009,08,18,13,39,25.00
2009,08,18,13,40,25.00
2009,08,18,13,41,24.90
2009,08,18,13,42,24.80
2009,08,18,13,43,24.80
2009,08,18,13,44,24.70
2009,08,18,13,45,24.60
2009,08,18,13,46,24.50
2009,08,18,13,47,24.40
2009,08,18,13,48,24.40
2009,08,18,13,49,24.30
2009,08,18,13,50,24.20
2009,08,18,13,51,24.20
2009,08,18,13,52,24.30
2009,08,18,13,53,24.40
2009,08,18,13,54,24.50
2009,08,18,13,55,24.60
2009,08,18,13,56,24.60
2009,08,18,13,57,24.70
2009,08,18,13,58,24.70
2009,08,18,13,59,24.70
2009,08,18,14,00,24.80
2009,08,18,14,01,24.80
2009,08,18,14,02,24.80
2009,08,18,14,03,24.80
2009,08,18,14,04,24.80
2009,08,18,14,05,24.70
2009,08,18,14,06,24.70
2009,08,18,14,07,24.70
2009,08,18,14,08,24.70
2009,08,18,14,09,24.70
2009,08,18,14,10,24.70
2009,08,18,14,11,24.60
2009,08,18,14,12,24.50
2009,08,18,14,13,24.40
2009,08,18,14,14,24.40
2009,08,18,14,15,24.40
2009,08,18,14,16,24.50
2009,08,18,14,17,24.60
2009,08,18,14,18,24.60
2009,08,18,14,19,24.50
2009,08,18,14,20,24.30
2009,08,18,14,21,24.20
2009,08,18,14,22,24.20
2009,08,18,14,23,24.20
2009,08,18,14,24,24.20
2009,08,18,14,25,24.20
2009,08,18,14,26,24.20
2009,08,18,14,27,24.20
2009,08,18,14,28,24.30
2009,08,18,14,29,24.40
2009,08,18,14,30,24.40
2009,08,18,14,31,24.40
2009,08,18,14,32,24.30
2009,08,18,14,33,24.30
2009,08,18,14,34,24.30
2009,08,18,14,35,24.30
2009,08,18,14,36,24.40
2009,08,18,14,37,24.50
2009,08,18,14,38,24.60
2009,08,18,14,39,24.60
2009,08,18,14,40,24.60
2009,08,18,14,41,24.70
2009,08,18,14,42,24.80
2009,08,18,14,43,25.00
2009,08,18,14,44,25.10
2009,08,18,14,45,25.20
2009,08,18,14,46,25.20
2009,08,18,14,47,25.20
2009,08,18,14,48,25.20
2009,08,18,14,49,25.20
2009,08,18,14,50,25.20
2009,08,18,14,51,25.40
2009,08,18,14,52,25.50
2009,08,18,14,53,25.60
2009,08,18,14,54,25.60
2009,08,18,14,55,25.70
2009,08,18,14,56,25.70
2009,08,18,14,57,25.60
2009,08,18,14,58,25.60
2009,08,18,14,59,25.60
2009,08,18,15,00,25.50
2009,08,18,15,01,25.50
2009,08,18,15,02,25.50
2009,08,18,15,03,25.50
2009,08,18,15,04,25.60
2009,08,18,15,05,25.60
2009,08,18,15,06,25.60
2009,08,18,15,07,25.60
2009,08,18,15,08,25.70
2009,08,18,15,09,25.70
2009,08,18,15,10,25.70
2009,08,18,15,11,25.70
2009,08,18,15,12,25.70
2009,08,18,15,13,25.80
2009,08,18,15,14,25.80
2009,08,18,15,15,25.90
2009,08,18,15,16,25.90
2009,08,18,15,17,25.90
2009,08,18,15,18,26.00
2009,08,18,15,19,26.10
2009,08,18,15,20,26.20
2009,08,18,15,21,26.20
2009,08,18,15,22,26.20
2009,08,18,15,23,26.20
2009,08,18,15,24,26.30
2009,08,18,15,25,26.40
2009,08,18,15,26,26.30
2009,08,18,15,27,26.10
2009,08,18,15,28,26.10
2009,08,18,15,29,26.00
2009,08,18,15,30,25.90
2009,08,18,15,31,26.00
2009,08,18,15,32,26.00
2009,08,18,15,33,26.10
2009,08,18,15,34,26.10
2009,08,18,15,35,26.10
2009,08,18,15,36,26.20
2009,08,18,15,37,26.20
2009,08,18,15,38,26.30
2009,08,18,15,39,26.30
2009,08,18,15,40,26.30
2009,08,18,15,41,26.30
2009,08,18,15,42,26.40
2009,08,18,15,43,26.30
2009,08,18,15,44,26.30
2009,08,18,15,45,26.20
2009,08,18,15,46,26.10
2009,08,18,15,47,26.00
2009,08,18,15,48,25.90
2009,08,18,15,49,25.90
2009,08,18,15,50,26.00
2009,08,18,15,51,26.00
2009,08,18,15,52,26.10
2009,08,18,15,53,26.10
2009,08,18,15,54,26.00
2009,08,18,15,55,25.90
2009,08,18,15,56,26.00
2009,08,18,15,57,26.10
2009,08,18,15,58,26.20
2009,08,18,15,59,26.20
2009,08,18,16,00,26.30
2009,08,18,16,01,26.20
2009,08,18,16,02,26.20
2009,08,18,16,03,26.20
2009,08,18,16,04,26.20
2009,08,18,16,05,26.30
2009,08,18,16,06,26.20
2009,08,18,16,07,26.00
2009,08,18,16,08,25.90
2009,08,18,16,09,25.80
2009,08,18,16,10,25.80
2009,08,18,16,11,25.90
2009,08,18,16,12,25.90
2009,08,18,16,13,25.90
2009,08,18,16,14,26.00
2009,08,18,16,15,26.00
2009,08,18,16,16,26.00
2009,08,18,16,17,26.10
2009,08,18,16,18,26.20
2009,08,18,16,19,26.30
2009,08,18,16,20,26.40
2009,08,18,16,21,26.40
2009,08,18,16,22,26.40
2009,08,18,16,23,26.40
2009,08,18,16,24,26.40
2009,08,18,16,25,26.40
2009,08,18,16,26,26.30
2009,08,18,16,27,26.20
2009,08,18,16,28,26.10
2009,08,18,16,29,26.10
2009,08,18,16,30,26.20
2009,08,18,16,31,26.20
2009,08,18,16,32,26.20
2009,08,18,16,33,26.30
2009,08,18,16,34,26.30
2009,08,18,16,35,26.40
2009,08,18,16,36,26.30
2009,08,18,16,37,26.30
2009,08,18,16,38,26.20
2009,08,18,16,39,26.20
2009,08,18,16,40,26.20
2009,08,18,16,41,26.30
2009,08,18,16,42,26.30
2009,08,18,16,43,26.30
2009,08,18,16,44,26.40
2009,08,18,16,45,26.40
2009,08,18,16,46,26.40
2009,08,18,16,47,26.40
2009,08,18,16,48,26.40
2009,08,18,16,49,26.40
2009,08,18,16,50,26.40
2009,08,18,16,51,26.40
2009,08,18,16,52,26.40
2009,08,18,16,53,26.40
2009,08,18,16,54,26.40
2009,08,18,16,55,26.50
2009,08,18,16,56,26.60
2009,08,18,16,57,26.70
2009,08,18,16,58,26.70
2009,08,18,16,59,26.70
2009,08,18,17,00,26.70
2009,08,18,17,01,26.80
2009,08,18,17,02,26.80
2009,08,18,17,03,26.80
2009,08,18,17,04,26.80
2009,08,18,17,05,26.70
2009,08,18,17,06,26.60
2009,08,18,17,07,26.60
2009,08,18,17,08,26.60
2009,08,18,17,09,26.60
2009,08,18,17,10,26.70
2009,08,18,17,11,26.70
2009,08,18,17,12,26.60
2009,08,18,17,13,26.60
2009,08,18,17,14,26.50
2009,08,18,17,15,26.40
2009,08,18,17,16,26.50
2009,08,18,17,17,26.50
2009,08,18,17,18,26.60
2009,08,18,17,19,26.60
2009,08,18,17,20,26.50
2009,08,18,17,21,26.40
2009,08,18,17,22,26.30